{"data":{"norad_id":58106,"epoch":"2026-09-20T11:42:45.513792Z","epoch_age_seconds":141494,"freshness":"FRESH","line1":"1 58106U 23161K   26263.48802678  .00000128  00000+0  14928-4 0  9993","line2":"2 58106  53.1615 323.7009 0001135  89.6657 270.4475 15.34388836164478","mean_motion":15.34388836,"eccentricity":0.0001135,"inclination_deg":53.1615,"raan_deg":323.7009,"arg_perigee_deg":89.6657,"mean_anomaly_deg":270.4475,"bstar":1.4928e-5,"rev_number":16447,"period_min":93.848440904584,"perigee_km":461.95998303558,"apogee_km":463.51286130242,"semimajor_km":6840.873422169,"source":"CELESTRAK","updated_at":"2026-09-21T09:00:33.787919Z"}}